Location: Newark
(46.7636°N, 1.8358°W)
Time: 08:41:31
(UTC+00:00)

Vanguard 2 Rocket - Pass Details

Date: 15 October 2019
Orbit: 554 x 3326 km, 32.9° (Epoch: 11 November)

Event Time Altitude Azimuth Distance (km) Brightness Sun altitude
Rises 17:39:58 0° 272° (W) 6,289 13.4 -4.0°
Reaches altitude 10° 17:49:29 10° 242° (WSW) 4,383 11.7 -5.6°
Maximum altitude 17:51:29 11° 232° (SW) 4,123 11.3 -6.0°
Drops below altitude 10° 17:53:20 10° 222° (SW) 3,964 10.9 -6.3°
Sets 17:59:44 0° 185° (S) 4,193 10.4 -7.4°
